Flag for Namibia Weather past 2 weeks in Windhoek, Namibia

Now
64 °F

Mild.


Feels Like: 64 °F
Forecast: 65 / 92 °F
Wind: 5 mph from East

Location: Windhoek

Current Time: Oct 25, 2014 at 2:41:48 AM

Latest Report: Oct 25, 2014 at 1:00 AM


Visibility: N/A

Pressure: 30.15 "Hg

Humidity: 11%

Dew point: 9 °F

Location of WindhoekLocation

Historic Weather in Windhoek — Graph

°F

Windhoek temperature yesterday

Maximum temperature yesterday: 88 °F (at 2:00 PM)
Minimum temperature yesterday: 57 °F (at 5:00 AM)
Average temperature yesterday: 73 °F

Past Weeks' High & Low Weather Summary

 TemperatureHumidityPressure
High93 °F (Oct 22, 1:00 PM)52% (Oct 13, 7:00 AM)30.27 "Hg (Oct 13, 7:00 AM)
Low52 °F (Oct 10, 5:00 AM)3% (Oct 24, 1:00 PM)30.04 "Hg (Oct 10, 3:00 PM)
Average73 °F16%30.16 "Hg
* Reported Oct 10 1:00 AM — Oct 25 1:00 AM, Windhoek, Weather by CustomWeather, © 2014

Note: Actual official high and low records may vary slightly from our data, if they occured in-between our weather recording intervals... More about our weather records

Advertising

Windhoek weather history for previous 24 hours

 ConditionsComfort  
Time TempWeatherWind HumidityBarometerVisibility
1:00 AM
Oct 25
64 °FMild.5 mph11%30.15 "HgN/A
12:00 AM70 °FMild.6 mph7%30.15 "HgN/A
11:00 PM
Oct 24
68 °FMild.5 mph6%30.15 "HgN/A
10:00 PM72 °FMild.3 mph6%30.15 "HgN/A
9:00 PM73 °FMild.3 mph4%30.12 "HgN/A
8:00 PM75 °FClear.3 mph4%30.09 "Hg10 mi
6:00 PM84 °FPassing clouds.10 mph3%30.07 "HgN/A
5:00 PM86 °FPleasantly warm.10 mph3%30.04 "HgN/A
4:00 PM88 °FSunny.13 mph4%30.04 "Hg10 mi
3:00 PM88 °FPleasantly warm.9 mph3%30.07 "HgN/A
2:00 PM88 °FSunny.10 mph3%30.07 "Hg10 mi
1:00 PM86 °FSunny.14 mph3%30.09 "Hg10 mi
12:00 PM81 °FSunny.3 mph4%30.09 "Hg10 mi
11:00 AM79 °FSunny.5 mph4%30.15 "Hg10 mi
10:00 AM73 °FSunny.7 mph6%30.12 "Hg10 mi
9:00 AM72 °FSunny.7 mph7%30.15 "Hg10 mi
8:00 AM68 °FSunny.3 mph10%30.15 "Hg10 mi
7:00 AM59 °FSunny.5 mph13%30.15 "Hg10 mi
6:00 AM57 °FClear.3 mph13%30.12 "Hg10 mi
5:00 AM57 °FRefreshingly cool.3 mph14%30.12 "HgN/A
4:00 AM63 °FMild.5 mph11%30.12 "HgN/A
3:00 AM61 °FRefreshingly cool.5 mph11%30.12 "HgN/A
2:00 AM64 °FMild.5 mph8%30.12 "HgN/A
Weather by CustomWeather, © 2014

See weather overviewHow to use our weather pages